Location: Fontevrault
(47.1823°N, 0.0493°E)
Time: 10:03:54
(UTC+00:00)

Cosmos 2219 Rocket - Pass Details

Date: 16 June 2021
Orbit: 829 x 845 km, 71.0° (Epoch: 03 August)

Event Time Altitude Azimuth Distance (km) Brightness Sun altitude
Exits shadow 21:24:37 15° 148° (SSE) 2,145 3.6 -11.2°
Maximum altitude 21:28:02 25° 102° (ESE) 1,631 3.3 -11.5°
Drops below altitude 10° 21:32:35 10° 49° (NE) 2,473 4.7 -11.9°
Sets 21:35:24 0° 37° (NE) 3,412 5.6 -12.2°
